Terug naar catalogus

COSMOS 2251 DEB

ActiefLEO
NORAD 35674·DEBRIS·🇷🇺 Russia

Gelanceerd Jun 16, 1993 vanaf Plesetsk Cosmodrome

Loading…

Volgende Passages (komende 24 uur)

TLE

VersSource: Space-Track

Epoch: Sep 14, 2026, 17:07 UTC

1 35674U 93036APR 26257.71378219  .00003074  00000-0  65217-3 0  9994
2 35674  74.0579 153.9767 0092044 130.7124 230.2082 14.56938546901271

Volg COSMOS 2251 DEB in realtime met AllMySat

Download on the App Store